Погода в Тангайле

Бангладеш     24°15′12″N   89°54′56″E
темп.,
°C
ветер,
м/с
пор.,
м/с
влажн.,
%
обл.,
%
осадки,
мм/ч
давл.,
гПа
погр.,
м
18 января, пн
пн1800:00+17сз22520 0.0 101423
03:00+16зсз235728 0.0 101423
06:00+15зсз236333 0.0 101423
09:00+20сз34530 0.0 1016297
12:00+25зсз32390 0.0 10151151
15:00+26зюз33330 0.0 10111691
18:00+21юз12440 0.0 101123
21:00+20ю23460 0.0 101223
19 января, вт
вт1900:00+18юз23520 0.0 101125
03:00+17ю23590 0.0 101024
06:00+16ю12630 0.0 101123
09:00+20ю23500 0.0 1013273
12:00+25ююз32370 0.0 10131272
15:00+27юз44280 0.0 10092264
18:00+22вюв33370 0.0 100825
21:00+20ююв46450 0.0 1010113
20 января, ср
ср2000:00+17юв23690 0.0 101030
03:00+17юз365319 0.0 1009120
06:00+19юз344356 0.0 1010108
09:00+20юз0145100 0.0 1013184
12:00+25ю223389 0.0 1012845
15:00+28з34282 0.0 10091497
18:00+23ю00372 0.0 100923
21:00+19ююв33742 0.0 101060
21 января, чт
чт2100:00+18вюв11891 0.1 101123
03:00+17вюв12920 0.3 100923
06:00+16в23940 0.3 101027
09:00+20всв33793 0.0 1013312
12:00+26ссз22371 0.0 10121387
15:00+27з45210 0.0 10092015
18:00+22ссз23310 0.0 100925
21:00+20ссз22360 0.0 101223
22 января, пт
пт2200:00+18с34510 0.0 101269
03:00+16в23660 0.0 101124
06:00+15всв22590 0.0 101123
09:00+20св23450 0.0 1014300
12:00+26юв12320 0.0 10121361
15:00+27зюз43240 0.0 10092213
18:00+21з22310 0.0 100923
21:00+19с22330 0.0 101123